| time (UTC) | temp F | wind direction | speed MPH | gust MPH | rain 1hr in | rain 24hr in | rain mn in | humidity % | barometer mb |
| 20260507133516 | 50 | 135 | 2.0 | 4.0 | 0.00 | 0.00 | 0.00 | 79 | 1019.1 |
| 20260507132517 | 49 | 158 | 2.0 | 4.0 | 0.00 | 0.00 | 0.00 | 85 | 1019.0 |
| 20260507131516 | 48 | 113 | 1.0 | 2.0 | 0.00 | 0.00 | 0.00 | 88 | 1019.0 |
| 20260507130516 | 46 | 113 | 1.0 | 2.0 | 0.00 | 0.00 | 0.00 | 87 | 1019.0 |
| 20260507125537 | 45 | 90 | 1.0 | 2.0 | 0.00 | 0.00 | 0.00 | 82 | 1019.1 |
| 20260507124516 | 44 | 0 | 1.0 | 2.0 | 0.00 | 0.00 | 0.00 | 80 | 1019.1 |
| 20260507123516 | 43 | 0.0 | 0.0 | 0.00 | 0.00 | 0.00 | 79 | 1018.9 | |
| 20260507122536 | 42 | 0.0 | 1.0 | 0.00 | 0.00 | 0.00 | 79 | 1018.8 | |
| 20260507121517 | 40 | 0.0 | 1.0 | 0.00 | 0.00 | 0.00 | 81 | 1018.7 | |
| 20260507120518 | 39 | 0.0 | 0.0 | 0.00 | 0.00 | 0.00 | 83 | 1018.6 | |
| 20260507115516 | 39 | 0.0 | 0.0 | 0.00 | 0.00 | 0.00 | 83 | 1018.7 | |
| 20260507114516 | 38 | 0.0 | 0.0 | 0.00 | 0.00 | 0.00 | 84 | 1018.5 | |
| 20260507113516 | 38 | 0.0 | 0.0 | 0.00 | 0.00 | 0.00 | 85 | 1018.4 | |
| 20260507112536 | 38 | 0.0 | 0.0 | 0.00 | 0.00 | 0.00 | 86 | 1018.3 | |
| 20260507111539 | 38 | 0.0 | 0.0 | 0.00 | 0.00 | 0.00 | 86 | 1018.2 | |
| 20260507110516 | 39 | 0.0 | 0.0 | 0.00 | 0.00 | 0.00 | 86 | 1018.3 | |
| 20260507105516 | 39 | 0.0 | 0.0 | 0.00 | 0.00 | 0.00 | 86 | 1018.2 | |
| 20260507104518 | 39 | 0.0 | 0.0 | 0.00 | 0.00 | 0.00 | 86 | 1018.1 | |
| 20260507103518 | 39 | 0.0 | 0.0 | 0.00 | 0.00 | 0.00 | 86 | 1017.9 | |
| 20260507102518 | 39 | 0.0 | 0.0 | 0.00 | 0.00 | 0.00 | 86 | 1018.0 | |
| 20260507101517 | 39 | 0.0 | 0.0 | 0.00 | 0.00 | 0.00 | 86 | 1018.0 | |
| 20260507100516 | 40 | 0.0 | 0.0 | 0.00 | 0.00 | 0.00 | 86 | 1018.0 | |
| 20260507095516 | 40 | 0.0 | 0.0 | 0.00 | 0.00 | 0.00 | 85 | 1018.1 | |
| 20260507094516 | 40 | 0.0 | 0.0 | 0.00 | 0.00 | 0.00 | 85 | 1018.0 | |
| 20260507093516 | 39 | 0.0 | 0.0 | 0.00 | 0.00 | 0.00 | 86 | 1018.0 | |
| 20260507092516 | 39 | 0.0 | 0.0 | 0.00 | 0.01 | 0.00 | 86 | 1018.0 | |
| 20260507091536 | 39 | 0.0 | 0.0 | 0.00 | 0.01 | 0.00 | 87 | 1018.1 | |
| 20260507090516 | 39 | 0.0 | 0.0 | 0.00 | 0.01 | 0.00 | 87 | 1018.1 | |
| 20260507085516 | 39 | 0.0 | 0.0 | 0.00 | 0.01 | 0.00 | 88 | 1018.1 | |
| 20260507084556 | 39 | 0.0 | 0.0 | 0.00 | 0.01 | 0.00 | 88 | 1018.2 | |
| 20260507083517 | 39 | 0.0 | 0.0 | 0.00 | 0.01 | 0.00 | 88 | 1018.2 | |
| 20260507082516 | 39 | 0.0 | 0.0 | 0.00 | 0.01 | 0.00 | 88 | 1018.5 | |
| 20260507081516 | 39 | 0.0 | 0.0 | 0.00 | 0.01 | 0.00 | 88 | 1018.5 | |
| 20260507080516 | 39 | 0.0 | 0.0 | 0.00 | 0.01 | 0.00 | 88 | 1018.5 | |
| 20260507075516 | 40 | 0.0 | 0.0 | 0.00 | 0.01 | 0.00 | 89 | 1018.5 | |
| 20260507074536 | 40 | 0.0 | 0.0 | 0.00 | 0.01 | 0.00 | 89 | 1018.3 | |
| 20260507073556 | 40 | 0.0 | 0.0 | 0.00 | 0.01 | 0.00 | 89 | 1018.2 | |
| 20260507072516 | 40 | 0.0 | 0.0 | 0.00 | 0.01 | 0.00 | 89 | 1018.2 | |
| 20260507071536 | 40 | 0.0 | 0.0 | 0.00 | 0.01 | 0.00 | 88 | 1018.2 | |
| 20260507070516 | 41 | 0.0 | 0.0 | 0.00 | 0.01 | 0.00 | 88 | 1018.4 | |
| 20260507065536 | 41 | 0.0 | 0.0 | 0.00 | 0.01 | 0.00 | 88 | 1018.4 | |
| 20260507064558 | 41 | 0.0 | 0.0 | 0.00 | 0.01 | 0.00 | 88 | 1018.3 | |
| 20260507063516 | 41 | 0.0 | 0.0 | 0.00 | 0.02 | 0.00 | 88 | 1018.5 | |
| 20260507062517 | 41 | 0.0 | 1.0 | 0.00 | 0.02 | 0.00 | 88 | 1018.3 | |
| 20260507061516 | 41 | 0.0 | 0.0 | 0.00 | 0.03 | 0.00 | 88 | 1018.4 | |
| 20260507060516 | 42 | 0.0 | 1.0 | 0.00 | 0.03 | 0.00 | 88 | 1018.3 | |
| 20260507055516 | 42 | 0.0 | 0.0 | 0.00 | 0.04 | 0.00 | 88 | 1018.3 | |
| 20260507054516 | 42 | 0.0 | 0.0 | 0.00 | 0.04 | 0.00 | 87 | 1018.3 | |
| 20260507053517 | 42 | 0.0 | 0.0 | 0.00 | 0.05 | 0.00 | 87 | 1018.3 | |
| 20260507052516 | 43 | 0.0 | 0.0 | 0.00 | 0.05 | 0.00 | 86 | 1018.4 | |
| 20260507051516 | 43 | 0.0 | 0.0 | 0.00 | 0.06 | 0.00 | 85 | 1018.2 | |
| 20260507050616 | 44 | 0.0 | 0.0 | 0.00 | 0.06 | 0.00 | 83 | 1018.1 | |
| 20260507045516 | 44 | 0.0 | 0.0 | 0.00 | 0.06 | 0.06 | 82 | 1018.0 | |
| 20260507044516 | 45 | 0.0 | 0.0 | 0.00 | 0.06 | 0.06 | 81 | 1018.0 | |
| 20260507043536 | 45 | 0.0 | 0.0 | 0.00 | 0.07 | 0.06 | 79 | 1017.8 | |
| 20260507042516 | 46 | 0.0 | 0.0 | 0.00 | 0.07 | 0.06 | 77 | 1017.8 | |
| 20260507041516 | 46 | 0.0 | 0.0 | 0.00 | 0.07 | 0.06 | 76 | 1017.9 | |
| 20260507040516 | 47 | 0.0 | 0.0 | 0.00 | 0.07 | 0.06 | 75 | 1017.8 | |
| 20260507035516 | 47 | 0.0 | 0.0 | 0.00 | 0.08 | 0.06 | 75 | 1017.8 | |
| 20260507034516 | 48 | 0.0 | 0.0 | 0.00 | 0.08 | 0.06 | 74 | 1018.0 | |
| 20260507033516 | 48 | 0.0 | 0.0 | 0.00 | 0.08 | 0.06 | 73 | 1018.0 | |
| 20260507032516 | 48 | 0.0 | 1.0 | 0.00 | 0.08 | 0.06 | 71 | 1017.9 | |
| 20260507031517 | 49 | 0.0 | 0.0 | 0.00 | 0.08 | 0.06 | 70 | 1017.9 | |
| 20260507030516 | 49 | 0.0 | 1.0 | 0.00 | 0.09 | 0.06 | 68 | 1017.7 | |
| 20260507025516 | 50 | 0.0 | 1.0 | 0.00 | 0.09 | 0.06 | 69 | 1017.7 | |
| 20260507024536 | 50 | 0.0 | 0.0 | 0.00 | 0.09 | 0.06 | 69 | 1017.8 | |
| 20260507023516 | 50 | 0.0 | 0.0 | 0.00 | 0.09 | 0.06 | 69 | 1017.8 | |
| 20260507022516 | 50 | 0.0 | 2.0 | 0.00 | 0.09 | 0.06 | 67 | 1017.7 | |
| 20260507021516 | 50 | 0.0 | 2.0 | 0.00 | 0.09 | 0.06 | 67 | 1017.6 | |
| 20260507020516 | 51 | 0.0 | 0.0 | 0.00 | 0.09 | 0.06 | 69 | 1017.4 | |
| 20260507015537 | 51 | 0.0 | 0.0 | 0.00 | 0.09 | 0.06 | 67 | 1017.3 | |
| 20260507014516 | 52 | 0.0 | 0.0 | 0.00 | 0.10 | 0.06 | 66 | 1017.1 | |
| 20260507013516 | 53 | 0.0 | 0.0 | 0.00 | 0.10 | 0.06 | 64 | 1017.0 | |
| 20260507012516 | 54 | 0.0 | 1.0 | 0.00 | 0.14 | 0.06 | 62 | 1016.9 | |
| 20260507011516 | 55 | 0.0 | 0.0 | 0.00 | 0.15 | 0.06 | 59 | 1016.7 | |
| 20260507010516 | 56 | 0.0 | 1.0 | 0.00 | 0.16 | 0.06 | 57 | 1016.5 | |
| 20260507005516 | 56 | 0.0 | 1.0 | 0.00 | 0.16 | 0.06 | 52 | 1016.4 | |
| 20260507004517 | 57 | 338 | 1.0 | 3.0 | 0.00 | 0.18 | 0.06 | 51 | 1016.3 |
| 20260507003515 | 58 | 293 | 2.0 | 5.0 | 0.00 | 0.20 | 0.06 | 48 | 1016.3 |
| 20260507002516 | 58 | 338 | 2.0 | 3.0 | 0.00 | 0.22 | 0.06 | 46 | 1016.3 |
| 20260507001516 | 59 | 0 | 2.0 | 5.0 | 0.00 | 0.23 | 0.06 | 45 | 1016.4 |
| 20260507000516 | 61 | 338 | 1.0 | 3.0 | 0.00 | 0.23 | 0.06 | 45 | 1016.4 |
| 20260506235516 | 62 | 338 | 2.0 | 7.0 | 0.00 | 0.24 | 0.06 | 43 | 1016.3 |
| 20260506234516 | 62 | 315 | 2.0 | 3.0 | 0.00 | 0.25 | 0.06 | 44 | 1016.2 |
| 20260506233516 | 61 | 338 | 2.0 | 5.0 | 0.00 | 0.28 | 0.06 | 44 | 1016.2 |
| 20260506232536 | 62 | 315 | 3.0 | 5.0 | 0.00 | 0.31 | 0.06 | 44 | 1016.3 |
| 20260506231517 | 62 | 338 | 2.0 | 5.0 | 0.00 | 0.33 | 0.06 | 43 | 1016.3 |
| 20260506230535 | 62 | 0 | 2.0 | 5.0 | 0.00 | 0.35 | 0.06 | 43 | 1016.4 |
| 20260506225516 | 63 | 0 | 2.0 | 3.0 | 0.00 | 0.36 | 0.06 | 44 | 1016.3 |
| 20260506224515 | 62 | 315 | 2.0 | 4.0 | 0.00 | 0.36 | 0.06 | 45 | 1016.3 |
| 20260506223517 | 62 | 0 | 2.0 | 5.0 | 0.00 | 0.37 | 0.06 | 43 | 1016.4 |
| 20260506222517 | 63 | 315 | 2.0 | 7.0 | 0.00 | 0.37 | 0.06 | 43 | 1016.5 |
| 20260506221519 | 62 | 270 | 2.0 | 5.0 | 0.00 | 0.37 | 0.06 | 43 | 1016.5 |
| 20260506220517 | 63 | 293 | 3.0 | 7.0 | 0.00 | 0.38 | 0.06 | 42 | 1016.6 |
| 20260506215517 | 62 | 293 | 2.0 | 5.0 | 0.00 | 0.38 | 0.06 | 44 | 1016.6 |
| 20260506214518 | 62 | 0 | 2.0 | 6.0 | 0.00 | 0.38 | 0.06 | 44 | 1016.6 |
| 20260506213517 | 62 | 315 | 2.0 | 5.0 | 0.00 | 0.38 | 0.06 | 46 | 1016.6 |
| 20260506212517 | 62 | 293 | 1.0 | 3.0 | 0.00 | 0.38 | 0.06 | 44 | 1016.6 |
| 20260506211538 | 64 | 293 | 3.0 | 7.0 | 0.00 | 0.38 | 0.06 | 43 | 1016.8 |
| 20260506210517 | 63 | 0 | 2.0 | 7.0 | 0.00 | 0.38 | 0.06 | 45 | 1016.8 |
| 20260506205515 | 63 | 293 | 3.0 | 5.0 | 0.00 | 0.38 | 0.06 | 43 | 1016.8 |
| 20260506204519 | 62 | 315 | 3.0 | 9.0 | 0.00 | 0.38 | 0.06 | 43 | 1016.8 |
| 20260506203517 | 62 | 293 | 3.0 | 7.0 | 0.00 | 0.38 | 0.06 | 41 | 1017.1 |
| 20260506202518 | 63 | 293 | 4.0 | 8.0 | 0.00 | 0.38 | 0.06 | 40 | 1017.3 |
| 20260506201518 | 63 | 270 | 1.0 | 5.0 | 0.00 | 0.38 | 0.06 | 39 | 1017.3 |
| 20260506200519 | 64 | 293 | 3.0 | 5.0 | 0.00 | 0.38 | 0.06 | 38 | 1017.3 |
| 20260506195517 | 63 | 293 | 3.0 | 9.0 | 0.00 | 0.38 | 0.06 | 41 | 1017.4 |
| 20260506194517 | 63 | 0 | 2.0 | 6.0 | 0.00 | 0.38 | 0.06 | 44 | 1017.4 |
| 20260506193517 | 63 | 293 | 3.0 | 6.0 | 0.00 | 0.38 | 0.06 | 45 | 1017.4 |
| 20260506192517 | 64 | 0 | 2.0 | 8.0 | 0.00 | 0.38 | 0.06 | 44 | 1017.3 |
| 20260506191517 | 63 | 338 | 3.0 | 6.0 | 0.00 | 0.38 | 0.06 | 44 | 1017.3 |
| 20260506190517 | 63 | 315 | 3.0 | 8.0 | 0.00 | 0.38 | 0.06 | 44 | 1017.2 |
| 20260506185517 | 63 | 315 | 3.0 | 7.0 | 0.00 | 0.38 | 0.06 | 43 | 1017.2 |
| 20260506184517 | 63 | 338 | 3.0 | 8.0 | 0.00 | 0.38 | 0.06 | 44 | 1017.1 |
| 20260506183537 | 62 | 293 | 3.0 | 7.0 | 0.00 | 0.38 | 0.06 | 42 | 1017.0 |
| 20260506182517 | 62 | 270 | 3.0 | 6.0 | 0.00 | 0.38 | 0.06 | 46 | 1017.0 |
| 20260506181517 | 61 | 293 | 3.0 | 7.0 | 0.00 | 0.38 | 0.06 | 51 | 1017.4 |
| 20260506180517 | 61 | 338 | 3.0 | 7.0 | 0.00 | 0.38 | 0.06 | 53 | 1017.6 |
| 20260506175519 | 61 | 0 | 3.0 | 7.0 | 0.00 | 0.38 | 0.06 | 57 | 1017.7 |
| 20260506174517 | 61 | 338 | 2.0 | 6.0 | 0.00 | 0.38 | 0.06 | 58 | 1017.7 |
| 20260506173517 | 60 | 338 | 3.0 | 6.0 | 0.00 | 0.38 | 0.06 | 61 | 1017.6 |
| 20260506172517 | 58 | 0 | 2.0 | 5.0 | 0.00 | 0.38 | 0.06 | 66 | 1017.5 |
| 20260506171517 | 57 | 270 | 2.0 | 7.0 | 0.00 | 0.38 | 0.06 | 68 | 1017.6 |
| 20260506170517 | 57 | 293 | 2.0 | 7.0 | 0.00 | 0.38 | 0.06 | 69 | 1017.6 |
| 20260506165537 | 57 | 315 | 2.0 | 6.0 | 0.00 | 0.38 | 0.06 | 71 | 1017.5 |
| 20260506164537 | 55 | 338 | 3.0 | 6.0 | 0.00 | 0.38 | 0.06 | 73 | 1017.5 |
| 20260506163517 | 54 | 293 | 3.0 | 7.0 | 0.00 | 0.38 | 0.06 | 76 | 1017.5 |
| 20260506162517 | 54 | 293 | 3.0 | 6.0 | 0.00 | 0.38 | 0.06 | 78 | 1017.4 |
| 20260506161517 | 54 | 293 | 4.0 | 6.0 | 0.00 | 0.38 | 0.06 | 80 | 1017.3 |
| 20260506160537 | 54 | 293 | 2.0 | 4.0 | 0.00 | 0.38 | 0.06 | 81 | 1017.1 |
| 20260506155517 | 53 | 293 | 2.0 | 6.0 | 0.00 | 0.38 | 0.06 | 82 | 1017.0 |
| 20260506154517 | 53 | 338 | 1.0 | 3.0 | 0.00 | 0.38 | 0.06 | 84 | 1016.7 |
| 20260506153517 | 52 | 338 | 2.0 | 4.0 | 0.00 | 0.38 | 0.06 | 86 | 1016.6 |
| 20260506152517 | 51 | 293 | 2.0 | 5.0 | 0.00 | 0.38 | 0.06 | 87 | 1016.7 |
| 20260506151517 | 51 | 293 | 2.0 | 5.0 | 0.00 | 0.38 | 0.06 | 88 | 1016.6 |
| 20260506150517 | 51 | 0 | 2.0 | 4.0 | 0.00 | 0.38 | 0.06 | 89 | 1016.5 |
| 20260506145517 | 51 | 293 | 2.0 | 5.0 | 0.00 | 0.38 | 0.06 | 87 | 1016.5 |
| 20260506144517 | 50 | 23 | 2.0 | 5.0 | 0.00 | 0.38 | 0.06 | 84 | 1016.6 |
| 20260506143518 | 49 | 293 | 2.0 | 7.0 | 0.00 | 0.38 | 0.06 | 80 | 1016.5 |
| 20260506142537 | 49 | 315 | 2.0 | 7.0 | 0.00 | 0.38 | 0.06 | 79 | 1016.4 |
| 20260506141518 | 48 | 338 | 2.0 | 4.0 | 0.00 | 0.38 | 0.06 | 79 | 1016.4 |
| 20260506140559 | 48 | 293 | 2.0 | 6.0 | 0.00 | 0.38 | 0.06 | 79 | 1016.5 |
| 20260506135518 | 48 | 338 | 1.0 | 2.0 | 0.00 | 0.38 | 0.06 | 78 | 1016.4 |
| 20260506134517 | 47 | 293 | 2.0 | 5.0 | 0.00 | 0.38 | 0.06 | 78 | 1016.4 |